Regional Weather Roundup
Issued by NWS

Home | Current Version | Previous Version | Text Only | Print | Product List | Glossary Off
Versions: 1 2 3 4 5 6 7 8 9 10 11 12 13 14 15 16 17 18 19 20 21 22 23 24 25 26 27 28 29 30 31 32 33 34 35 36 37 38 39 40 41 42 43 44 45 46 47 48 49 50

000
ASUS43 KMKX 011421
RWRWI

WISCONSIN REGIONAL WEATHER ROUNDUP
NATIONAL WEATHER SERVICE MILWAUKEE/SULLIVAN WI
900 AM CDT FRI AUG 01 2014

NOTE: "FAIR" INDICATES FEW OR NO CLOUDS BELOW 12,000 FEET WITH NO
SIGNIFICANT WEATHER AND/OR OBSTRUCTIONS TO VISIBILITY.

WIZ001-002-006>008-014>016-023>028-011500-
NORTHWEST WISCONSIN

CITY           SKY/WX    TMP DP  RH WIND       PRES   REMARKS
SUPERIOR ARPT  SUNNY     61  54  78 E6        30.07S
ASHLAND        SUNNY     65  58  78 NE5       30.07R
HAYWARD        MOSUNNY   64  60  87 CALM      30.07R
SIREN          CLOUDY    62  61  97 CALM      30.06S FOG
RICE LAKE      SUNNY     66  62  87 CALM      30.08R
LADYSMITH      CLOUDY    63  62  97 CALM      30.08S FOG
EAU CLAIRE     SUNNY     69  61  75 W6        30.05S
MENOMONIE      SUNNY     71  61  70 SW3       30.06S
NEW RICHMOND   SUNNY     69  63  82 CALM      30.06F
OSCEOLA        SUNNY     67  64  91 CALM      30.09R
$$

WIZ003>005-009-010-017-018-011500-
NORTH CENTRAL WISCONSIN

CITY           SKY/WX    TMP DP  RH WIND       PRES   REMARKS
WOODRUFF       SUNNY     64  58  80 CALM      30.07R
RHINELANDER    SUNNY     63  59  87 CALM      30.08S
EAGLE RIVER    SUNNY     62  56  80 CALM      30.07R
LAND O LAKES   SUNNY     63  62  96 N3        30.09R
PHILLIPS       SUNNY     62  61  95 CALM      30.07S
TOMAHAWK       SUNNY     61  60  97 CALM      30.08S
MEDFORD        MOSUNNY   65  62  89 CALM      30.07S
MERRILL        SUNNY     62  61  99 CALM      30.07S
$$

WIZ029-030-035-036-043>047-011500-
CENTRAL WISCONSIN

CITY           SKY/WX    TMP DP  RH WIND       PRES   REMARKS
WAUSAU         MOSUNNY   66  60  81 VRB3      30.05S
MOSINEE        MOSUNNY   64  64 100 CALM      30.07S
MARSHFIELD     MOSUNNY   69  61  75 W6        30.06S
STEVENS POINT  SUNNY     65  60  81 SW3       30.07S
WAUPACA        SUNNY     73  61  66 CALM      30.06S
WAUTOMA        SUNNY     71  61  70 VRB5      30.07S
WISC RAPIDS    SUNNY     70  60  70 CALM      30.08S
CAMP DOUGLAS   SUNNY     72  66  83 W8        30.07R
$$

WIZ011>013-019>022-031-037>040-048>050-011500-
NORTHEAST WISCONSIN

CITY           SKY/WX    TMP DP  RH WIND       PRES   REMARKS
ANTIGO         SUNNY     61  61 100 CALM      30.08S
STURGEON BAY   SUNNY     70  61  73 CALM      30.06R
GREEN BAY      SUNNY     67  63  87 CALM      30.05F
MANITOWOC      MOSUNNY   70  63  78 W3        30.06R
APPLETON       SUNNY     66  63  88 VRB3      30.07R
CLINTONVILLE   SUNNY     68  59  73 W3        30.05F
OSHKOSH        MOSUNNY   70  62  76 VRB5      30.06R
$$

WIZ032>034-041-042-053>061-011500-
SOUTHWEST WISCONSIN

CITY           SKY/WX    TMP DP  RH WIND       PRES   REMARKS
LA CROSSE      SUNNY     70  60  70 S3        30.07R
SPARTA         SUNNY     67  59  75 W3        30.08S
VIROQUA        FAIR      69  59  70 CALM      30.09S
BOSCOBEL       SUNNY     68  61  78 CALM      30.09R
PRAIRIE DU CHI MOSUNNY   63  62  95 CALM      30.08S
PLATTEVILLE    FAIR      69  62  80 CALM      30.10S
$$

WIZ056-057-062-063-064-067-068-011500-
SOUTH CENTRAL WISCONSIN

CITY           SKY/WX    TMP DP  RH WIND       PRES   REMARKS
BARABOO/DELLS  SUNNY     72  57  60 W5        30.08R
LONE ROCK      SUNNY     68  61  78 CALM      30.09R
WATERTOWN      SUNNY     68  62  79 CALM      30.08R
MADISON        SUNNY     72  58  61 W3        30.08R
MIDDLETON      FAIR      73  58  59 W6        30.09R
MONROE         SUNNY     70  61  73 SW6       30.10R
JANESVILLE     SUNNY     72  61  68 SW7       30.08S
$$

WIZ051-052-058>065-066-070>072-011500-
SOUTHEAST WISCONSIN

CITY           SKY/WX    TMP DP  RH WIND       PRES   REMARKS
MILWAUKEE      MOSUNNY   74  58  57 VRB3      30.07S
WAUKESHA       SUNNY     70  61  73 CALM      30.09S
MILWAUKEE/TIMM SUNNY     72  57  60 W5        30.08S
RACINE         SUNNY     72  60  66 W6        30.09S
BURLINGTON     SUNNY     69  62  77 SW5       30.09R
KENOSHA        SUNNY     72  62  71 W7        30.09R
FOND DU LAC    MOSUNNY   71  61  70 W3        30.07R
SHEBOYGAN      SUNNY     72  62  71 W6        30.06S
WEST BEND      SUNNY     72  55  56 W5        30.07S
JUNEAU         SUNNY     68  58  70 S3        30.09R
$$

LSZ147-162-011500-
LAKE SUPERIOR

STATION/POSITION TIME  TEMP    WIND        PRES    WAVE
                       AIR SEA DIR/SP/G            HT/PER
                 (UTC) (F)     (DEG/KT/KT) (MB)    (FT/S)
W MID LAKE BUOY  1350   47 43   10/  6/  6 1018.2R   0
PORT WING        1300   59      30/  3/  6 1018.3R
SAXON HARBOR     1300          200/  1/  3 1017.9R
$$

LMZ867-665-643>646-011500-
LAKE MICHIGAN

STATION/POSITION TIME  TEMP    WIND        PRES    WAVE
                       AIR SEA DIR/SP/G            HT/PER
                 (UTC) (F)     (DEG/KT/KT) (MB)    (FT/S)
N MID LAKE BUOY  1350   58 55   CALM  /  2 1017.4R   1
NORTHPORT PIER   1300   65     100/  1/  1 1017.6R
ALGOMA LAKESHORE 1321           80/  7/  8   N/A
KEWAUNEE LAKESHO 1300   63     320/  1/  4 1016.6R
SHEBOYGAN LAKESH 1400   73     260/  8/  9 1017.7R
PORT WASHINGTON  1300   72     290/  4/  7 1018.3
ATWATER BUOY     1400   71     240/  2     1019.4R
MILWAUKEE LAKESH 1400   73     270/  5/  6   N/A
S MID LAKE BUOY  1350   64 63  210/  6/  8 1018.6R   0
KENOSHA   LAKESH 1400   73     270/  5/  8 1018.3R
$$

TC  - TEMPERATURE IN CELSIUS
VSB - VISIBILITY IN STATUTE MILES
WCI - WIND CHILL INDEX
HX  - HEAT INDEX




USA.gov is the U.S. government's official web portal to all federal, state and local government web resources and services.